Volk, WI

10:00 AM CDT on August 18, 2017 (GMT -0500)
Volk

Weather History for KVOK - July, 2012

Change the Weather History Date:

Wednesday, July 4, 2012

  Actual Average Record
Temperature  
Mean Temperature 88 °F -  
Max Temperature 100 °F 77 °F 100 °F (2012)
Min Temperature 75 °F 62 °F 43 °F (2014)
Cooling Degree Days 23    
Growing Degree Days 38 (Base 50)    
Moisture  
Dew Point 73 °F    
Average Humidity 69    
Maximum Humidity 100    
Minimum Humidity 34    
Precipitation  
Precipitation 0.00 in - - ()
Sea Level Pressure  
Sea Level Pressure 29.80 in    
Wind  
Wind Speed 6 mph (SW)    
Max Wind Speed 15 mph    
Max Gust Speed 24 mph    
Visibility 10 miles    
Events Rain    
Averages and records for this station are not official NWS values.
T = Trace of Precipitation, MM = Missing Value Source: NWS Daily Summary

Daily Weather History Graph

Daily Weather History Graph

Search for Another Location

Airport or City:

Trip Planner

Search our weather history database for the weather conditions in past years. The results will help you decide how hot, cold, wet, or windy it might be!

Date:

Astronomy

Jul. 04, 2012 Rise Set
Actual Time 5:24 AM CDT 8:46 PM CDT
Civil Twilight 4:48 AM CDT 9:22 PM CDT
Nautical Twilight 4:01 AM CDT 10:08 PM CDT
Astronomical Twilight 3:03 AM CDT 11:07 PM CDT
Moon 9:20 PM CDT (7/4) 6:30 AM CDT (7/4)
Length of Visible Light 16h 33m
Length of Day
15h 22m
Full, 99% of the Moon is Illuminated
Jul 4
Full
Jul 10
Last Quarter
Jul 18
New
Jul 26
First Quarter
Aug 1
Full

Hourly Weather History & Observations

Time (CDT) Temp. Heat Index Dew Point Humidity Pressure Visibility Wind Dir Wind Speed Gust Speed Precip Events Conditions
12:55 AM 84.2 °F 91.6 °F 74.1 °F 72% 29.76 in 10.0 mi SSW 8.1 mph - N/A   Clear
1:55 AM 83.1 °F 90.1 °F 74.3 °F 75% 29.77 in 10.0 mi SW 6.9 mph - N/A   Clear
2:55 AM 81.5 °F 87.4 °F 74.5 °F 79% 29.78 in 10.0 mi Variable 3.5 mph - N/A   Scattered Clouds
3:49 AM 78.8 °F - 75.2 °F 89% 29.79 in 10.0 mi East 3.5 mph - N/A   Light Drizzle
3:55 AM 77.2 °F - 75.4 °F 94% 29.79 in 10.0 mi SE 3.5 mph - 0.00 in Rain Light Rain
3:59 AM 77.0 °F - 75.2 °F 94% 29.79 in 10.0 mi SE 3.5 mph - N/A   Clear
4:55 AM 77.2 °F - 75.7 °F 95% 29.80 in 10.0 mi SSE 3.5 mph - 0.00 in   Mostly Cloudy
5:26 AM 77.0 °F - 75.2 °F 94% 29.81 in 10.0 mi SSE 4.6 mph - N/A Rain Light Rain
5:28 AM 77.0 °F - 77.0 °F 100% 29.81 in 9.0 mi SSE 4.6 mph - N/A Rain Light Rain
5:40 AM 77.0 °F - 77.0 °F 100% 29.80 in 10.0 mi South 5.8 mph - N/A   Scattered Clouds
5:55 AM 76.3 °F - 76.3 °F 100% 29.79 in 10.0 mi SE 4.6 mph - 0.00 in   Partly Cloudy
6:55 AM 76.6 °F - 76.6 °F 100% 29.81 in 10.0 mi Calm Calm - N/A   Partly Cloudy
7:55 AM 81.1 °F 88.0 °F 76.5 °F 86% 29.82 in 10.0 mi West 4.6 mph - N/A   Clear
8:55 AM 85.3 °F 94.6 °F 75.6 °F 73% 29.82 in 10.0 mi WSW 5.8 mph - N/A   Clear
9:55 AM 90.0 °F 100.7 °F 75.6 °F 62% 29.81 in 10.0 mi West 5.8 mph - N/A   Clear
10:55 AM 92.3 °F 102.8 °F 74.5 °F 56% 29.80 in 10.0 mi SW 8.1 mph - N/A   Clear
11:55 AM 94.8 °F 104.8 °F 73.4 °F 50% 29.81 in 10.0 mi West 12.7 mph - N/A   Clear
12:55 PM 96.8 °F 106.6 °F 73.0 °F 46% 29.82 in 10.0 mi West 8.1 mph 18.4 mph N/A   Clear
1:55 PM 98.6 °F 105.5 °F 69.4 °F 39% 29.82 in 10.0 mi WSW 13.8 mph 24.2 mph N/A   Clear
2:55 PM 100.2 °F 105.3 °F 67.1 °F 34% 29.80 in 10.0 mi West 10.4 mph - N/A   Clear
3:55 PM 98.8 °F 103.8 °F 67.6 °F 36% 29.79 in 10.0 mi SW 11.5 mph 18.4 mph N/A   Clear
4:55 PM 98.2 °F 104.1 °F 68.9 °F 38% 29.79 in 10.0 mi WSW 15.0 mph 19.6 mph N/A   Clear
5:55 PM 96.3 °F 101.4 °F 68.0 °F 40% 29.80 in 10.0 mi WSW 10.4 mph - N/A   Clear
6:55 PM 95.5 °F 100.6 °F 68.2 °F 41% 29.80 in 10.0 mi SW 11.5 mph - N/A   Clear
7:55 PM 92.7 °F 98.3 °F 69.4 °F 47% 29.81 in 10.0 mi SW 5.8 mph - N/A   Clear
8:55 PM 89.2 °F 93.6 °F 68.7 °F 51% 29.80 in 10.0 mi SSW 5.8 mph - N/A   Clear
9:55 PM 86.4 °F 91.1 °F 70.2 °F 58% 29.83 in 10.0 mi Calm Calm - N/A   Clear
10:55 PM 79.3 °F - 70.7 °F 75% 29.84 in 10.0 mi Calm Calm - N/A   Clear
11:55 PM 75.2 °F - 71.1 °F 87% 29.85 in 10.0 mi Calm Calm - N/A   Clear